Terminal Aerodrome Forecast
Issued by NWS

Home | Current Version | Previous Version | Text Only | Print | Product List | Glossary On
Versions: 1 2 3 4 5 6 7 8 9 10 11 12 13 14 15 16 17 18 19 20
665
FTUS41 KGYX 130412 AAA
TAFRKD
TAF AMD
KRKD 130412Z 1304/1324 VRB04KT 2SM -SHSN BR BKN015 OVC025
     FM130800 08007KT 1/2SM SN OVC008
     FM131500 02010KT 1SM -SN BR SCT008 OVC015
     FM131800 32012G22KT P6SM SCT025 BKN040
      AMD LTD TO CLD VIS AND WIND=

USA.gov is the U.S. government's official web portal to all federal, state and local government web resources and services.